Weather History for Townsville Amo, Queensland

Change the Weather History Date:

Saturday, November 9, 2013

  Actual Average Record
Temperature  
Mean Temperature 76 °F -  
Max Temperature 83 °F 88 °F - ()
Min Temperature 68 °F 74 °F - ()
Cooling Degree Days 10    
Growing Degree Days 26 (Base 50)    
Moisture  
Dew Point 63 °F    
Average Humidity 60    
Maximum Humidity 83    
Minimum Humidity 39    
Precipitation  
Precipitation 0.00 in 0.11 in - ()
Sea Level Pressure  
Sea Level Pressure 29.91 in    
Wind  
Wind Speed 8 mph ()    
Max Wind Speed 17 mph    
Max Gust Speed -    
Visibility 6.2 miles    
Events      
T = Trace of Precipitation, MM = Missing Value Source: Averaged Metar Reports

Daily Weather History Graph

Daily Weather History Graph

Search for Another Location

Airport:

Trip Planner

Search our weather history database for the weather conditions in past years. The results will help you decide how hot, cold, wet, or windy it might be!

Date:

Astronomy

Nov. 09, 2013 Rise Set
Actual Time 5:28 AM EST 6:24 PM EST
Civil Twilight 5:05 AM EST 6:48 PM EST
Nautical Twilight 4:38 AM EST 7:15 PM EST
Astronomical Twilight 4:10 AM EST 7:43 PM EST
Moon 10:46 AM EST (11/9) 11:53 PM EST (11/9)
Length of Visible Light 13h 42m
Length of Day
12h 56m
Waxing Crescent, 37% of the Moon is Illuminated
Nov 9
Waxing Crescent
Nov 10
First Quarter
Nov 18
Full
Nov 26
Last Quarter
Dec 3
New

Hourly Weather History & Observations

Time (EST) Temp. Heat Index Dew Point Humidity Pressure Visibility Wind Dir Wind Speed Gust Speed Precip Events Conditions
12:00 AM 74 °F - 62 °F 57% 29.92 in - East 8.1 mph - -  
12:00 AM 73.4 °F - 62.6 °F 69% 29.92 in 6.2 mi East 8.1 mph - N/A   Unknown
12:30 AM 73.4 °F - 60.8 °F 65% 29.92 in 6.2 mi East 8.1 mph - N/A   Scattered Clouds
1:00 AM 74 °F - 60 °F 53% 29.92 in - East 8.1 mph - -  
1:00 AM 73.4 °F - 60.8 °F 65% 29.89 in 6.2 mi East 8.1 mph - N/A   Scattered Clouds
1:30 AM 73.4 °F - 60.8 °F 65% 29.89 in 6.2 mi East 5.8 mph - N/A   Unknown
2:00 AM 73.4 °F - 60.8 °F 65% 29.89 in 6.2 mi East 5.8 mph - N/A   Unknown
2:30 AM 71.6 °F - 60.8 °F 69% 29.89 in 6.2 mi ESE 4.6 mph - N/A   Scattered Clouds
3:00 AM 70 °F - 64 °F 75% 29.89 in - SSW 4.6 mph - -  
3:00 AM 69.8 °F - 64.4 °F 83% 29.89 in 6.2 mi SSW 4.6 mph - N/A   Mostly Cloudy
3:30 AM 69.8 °F - 62.6 °F 78% 29.89 in 6.2 mi SSW 5.8 mph - N/A   Unknown
4:00 AM 69 °F - 63 °F 76% 29.92 in - South 4.6 mph - -  
4:00 AM 69.8 °F - 62.6 °F 78% 29.89 in 6.2 mi South 4.6 mph - N/A   Unknown
4:30 AM 71.6 °F - 62.6 °F 73% 29.89 in 6.2 mi South 1.2 mph - N/A   Scattered Clouds
5:00 AM 71.6 °F - 62.6 °F 73% 29.89 in 6.2 mi SSW 5.8 mph - N/A   Unknown
5:30 AM 69.8 °F - 64.4 °F 83% 29.92 in 6.2 mi SSW 4.6 mph - N/A   Unknown
6:00 AM 70 °F - 63 °F 73% 29.93 in 31 mi SSW 4.6 mph - -   Partly Cloudy
6:00 AM 69.8 °F - 62.6 °F 78% 29.92 in 6.2 mi South 4.6 mph - N/A   Partly Cloudy
6:30 AM 71.6 °F - 62.6 °F 73% 29.92 in 6.2 mi South 4.6 mph - N/A   Partly Cloudy
7:00 AM 75 °F - 63 °F 57% 29.96 in - SSE 8.1 mph - -  
7:00 AM 75.2 °F - 62.6 °F 65% 29.95 in 6.2 mi SSE 8.1 mph - N/A   Partly Cloudy
7:30 AM 77.0 °F - 62.6 °F 61% 29.95 in 6.2 mi SE 8.1 mph - N/A   Partly Cloudy
8:00 AM 78.8 °F - 62.6 °F 57% 29.95 in 6.2 mi SE 10.4 mph - N/A   Partly Cloudy
8:30 AM 80.6 °F 81.8 °F 62.6 °F 54% 29.95 in 6.2 mi East 10.4 mph - N/A   Partly Cloudy
9:00 AM 80 °F - 62 °F 45% 29.96 in 31 mi East 11.5 mph - -   Partly Cloudy
9:00 AM 80.6 °F 81.8 °F 62.6 °F 54% 29.95 in 6.2 mi East 11.5 mph - N/A   Partly Cloudy
9:30 AM 80.6 °F 81.8 °F 62.6 °F 54% 29.95 in 6.2 mi East 11.5 mph - N/A   Partly Cloudy
10:00 AM 81 °F - 60 °F 39% 29.96 in - NE 11.5 mph - -  
10:00 AM 80.6 °F 81.5 °F 60.8 °F 51% 29.95 in 6.2 mi NE 11.5 mph - N/A   Partly Cloudy
10:30 AM 80.6 °F 81.5 °F 60.8 °F 51% 29.95 in 6.2 mi NE 12.7 mph - N/A   Partly Cloudy
11:00 AM 80.6 °F 82.3 °F 64.4 °F 58% 29.92 in 6.2 mi NE 10.4 mph - N/A   Partly Cloudy
11:30 AM 82.4 °F 83.9 °F 64.4 °F 54% 29.92 in 6.2 mi NE 11.5 mph - N/A   Partly Cloudy
12:00 PM 83 °F - 66 °F 48% 29.91 in 31 mi NE 12.7 mph - -   Partly Cloudy
12:00 PM 82.4 °F 84.6 °F 66.2 °F 58% 29.92 in 6.2 mi NE 12.7 mph - N/A   Partly Cloudy
12:30 PM 82.4 °F 83.4 °F 62.6 °F 51% 29.89 in 6.2 mi NE 16.1 mph - N/A   Mostly Cloudy
1:00 PM 82 °F - 62 °F 40% 29.90 in - NE 16.1 mph - -  
1:00 PM 82.4 °F 83.4 °F 62.6 °F 51% 29.89 in 6.2 mi NE 16.1 mph - N/A   Mostly Cloudy
1:30 PM 82.4 °F 83.4 °F 62.6 °F 51% 29.86 in 6.2 mi NE 16.1 mph - N/A   Unknown
2:00 PM 82.4 °F 83.4 °F 62.6 °F 51% 29.86 in 6.2 mi ENE 17.3 mph - N/A   Mostly Cloudy
2:30 PM 82.4 °F 83.4 °F 62.6 °F 51% 29.86 in 6.2 mi NE 17.3 mph - N/A   Mostly Cloudy
3:00 PM 82 °F - 61 °F 39% 29.86 in 31 mi ENE 17.3 mph - -   Smoke
3:00 PM 82.4 °F 82.9 °F 60.8 °F 48% 29.86 in 6.2 mi ENE 17.3 mph - N/A   Scattered Clouds
3:30 PM 82.4 °F 82.9 °F 60.8 °F 48% 29.83 in - ENE 17.3 mph - N/A   Clear
4:00 PM 81 °F - 61 °F 40% 29.86 in - NE 16.1 mph - -  
4:00 PM 80.6 °F 81.5 °F 60.8 °F 51% 29.83 in - NE 16.1 mph - N/A   Clear
4:30 PM 80.6 °F 81.5 °F 60.8 °F 51% 29.86 in 6.2 mi ENE 16.1 mph - N/A   Scattered Clouds
5:00 PM 80.6 °F 81.5 °F 60.8 °F 51% 29.86 in 6.2 mi ENE 15.0 mph - N/A   Scattered Clouds
5:30 PM 78.8 °F - 60.8 °F 54% 29.86 in - NE 15.0 mph - N/A   Clear
6:00 PM 79 °F - 63 °F 48% 29.89 in 25 mi ENE 11.5 mph - -   Smoke
6:00 PM 78.8 °F - 62.6 °F 57% 29.89 in - ENE 11.5 mph - N/A   Clear
6:30 PM 77.0 °F - 62.6 °F 61% 29.89 in - NE 10.4 mph - N/A   Clear
7:00 PM 77 °F - 61 °F 49% 29.91 in - NE 9.2 mph - -  
7:00 PM 77.0 °F - 60.8 °F 57% 29.89 in - NE 9.2 mph - N/A   Clear
7:30 PM 77.0 °F - 62.6 °F 61% 29.89 in - ENE 6.9 mph - N/A   Clear
8:00 PM 77.0 °F - 62.6 °F 61% 29.89 in - NE 9.2 mph - N/A   Clear
8:30 PM 75.2 °F - 64.4 °F 69% 29.92 in - NE 9.2 mph - N/A   Clear
9:00 PM 75 °F - 64 °F 62% 29.92 in 25 mi NNE 6.9 mph - -   Smoke
9:00 PM 75.2 °F - 64.4 °F 69% 29.92 in 6.2 mi NNE 6.9 mph - N/A   Mostly Cloudy
9:30 PM 75.2 °F - 64.4 °F 69% 29.92 in 6.2 mi NNE 8.1 mph - N/A   Mostly Cloudy
10:00 PM 76 °F - 65 °F 60% 29.94 in - North 6.9 mph - -  
10:00 PM 75.2 °F - 64.4 °F 69% 29.92 in 6.2 mi North 6.9 mph - N/A   Mostly Cloudy
10:30 PM 75.2 °F - 64.4 °F 69% 29.92 in 6.2 mi North 5.8 mph - N/A   Mostly Cloudy
11:00 PM 75.2 °F - 64.4 °F 69% 29.92 in 6.2 mi North 5.8 mph - N/A   Scattered Clouds
11:30 PM 75.2 °F - 64.4 °F 69% 29.89 in 6.2 mi NNE 6.9 mph - N/A   Scattered Clouds